Tracking 21676 objects as of 29-Oct-2020
HD Live streaming from Space Station
objects crossing your sky now

COSMOS 825

Track COSMOS 825 now!
10-day predictions
COSMOS 825 is classified as:


NORAD ID: 8889
Int'l Code: 1976-054A
Perigee: 1,402.3 km
Apogee: 1,493.5 km
Inclination: 74.0 °
Period: 114.7 minutes
Semi major axis: 7818 km
RCS: 0.6977 m2 (medium)
Launch date: June 15, 1976
Source: Commonwealth of Independent States (former USSR) (CIS)
Launch site: PLESETSK MISSILE AND SPACE COMPLEX (PKMTR)
aabbcc
Your satellite tracking list
Your tracking list is empty




NASA's NSSDC Master Catalog

Two Line Element Set (TLE):
1  8889U 76054A   20302.37845897 -.00000021 +00000-0 -30757-4 0  9994
2  8889 073.9978 271.4665 0058318 021.5655 131.3004 12.55700530033868
Source of the keplerian elements: AFSPC